Time,TemperatureF,DewpointF,PressureIn,WindDirection,WindDirectionDegrees,WindSpeedMPH,WindSpeedGustMPH,Humidity,HourlyPrecipIn,Conditions,Clouds,dailyrainin,SolarRadiationWatts/m^2,SoftwareType,DateUTC
2013-01-10 01:00:00,34.0,28.0,29.63,SW,231,3.0,-999.0,76,-99.99,,,-99.99,0.030000,,2013-01-10 08:00:00,
2013-01-10 01:53:00,34.0,28.0,29.63,SW,231,3.0,-999.0,76,-99.99,,,-99.99,0.030000,,2013-01-10 08:53:00,
2013-01-10 02:00:00,35.0,28.0,29.62,SSW,207,6.0,-999.0,77,-99.99,,,-99.99,0.050000,,2013-01-10 09:00:00,
2013-01-10 02:52:00,35.0,28.0,29.62,SSW,207,6.0,-999.0,77,-99.99,,,-99.99,0.050000,,2013-01-10 09:52:00,
2013-01-10 03:00:00,30.0,26.0,29.62,SSE,164,4.0,-999.0,87,-99.99,,,-99.99,0.040000,,2013-01-10 10:00:00,
2013-01-10 03:53:00,30.0,26.0,29.62,SSE,164,4.0,-999.0,87,-99.99,,,-99.99,0.040000,,2013-01-10 10:53:00,
2013-01-10 04:00:00,31.0,27.0,29.60,South,187,3.0,-999.0,87,-99.99,,,-99.99,0.030000,,2013-01-10 11:00:00,
2013-01-10 04:53:00,31.0,27.0,29.60,South,187,3.0,-999.0,87,-99.99,,,-99.99,0.030000,,2013-01-10 11:53:00,
2013-01-10 05:00:00,31.0,27.0,29.59,SSW,194,6.0,-999.0,86,-99.99,,,-99.99,0.030000,,2013-01-10 12:00:00,
2013-01-10 05:53:00,31.0,27.0,29.59,SSW,194,6.0,-999.0,86,-99.99,,,-99.99,0.030000,,2013-01-10 12:53:00,
2013-01-10 06:00:00,31.0,27.0,29.57,West,268,3.0,-999.0,86,-99.99,,,-99.99,0.030000,,2013-01-10 13:00:00,
2013-01-10 06:53:00,31.0,27.0,29.57,West,268,3.0,-999.0,86,-99.99,,,-99.99,0.030000,,2013-01-10 13:53:00,
2013-01-10 07:00:00,32.0,27.0,29.55,SW,215,6.0,-999.0,84,-99.99,,,-99.99,0.040000,,2013-01-10 14:00:00,
2013-01-10 07:53:00,32.0,27.0,29.55,SW,215,6.0,-999.0,84,-99.99,,,-99.99,0.040000,,2013-01-10 14:53:00,
2013-01-10 08:00:00,34.0,28.0,29.55,SSW,199,6.0,-999.0,77,-99.99,,,-99.99,1.400000,,2013-01-10 15:00:00,
2013-01-10 08:53:00,34.0,28.0,29.55,SSW,199,6.0,-999.0,77,-99.99,,,-99.99,1.400000,,2013-01-10 15:53:00,
2013-01-10 09:00:00,34.0,28.0,29.52,WSW,249,5.0,-999.0,78,-99.99,,,-99.99,17.700001,,2013-01-10 16:00:00,
2013-01-10 09:53:00,34.0,28.0,29.52,WSW,249,5.0,-999.0,78,-99.99,,,-99.99,17.700001,,2013-01-10 16:53:00,
2013-01-10 10:00:00,36.0,29.0,29.50,West,280,9.0,-999.0,76,-99.99,,,-99.99,52.049999,,2013-01-10 17:00:00,
2013-01-10 10:53:00,36.0,29.0,29.50,West,280,9.0,-999.0,76,-99.99,,,-99.99,52.049999,,2013-01-10 17:53:00,
2013-01-10 11:00:00,38.0,28.0,29.48,ESE,122,3.0,-999.0,66,-99.99,,,-99.99,76.370003,,2013-01-10 18:00:00,
2013-01-10 11:53:00,38.0,28.0,29.48,ESE,122,3.0,-999.0,66,-99.99,,,-99.99,76.370003,,2013-01-10 18:53:00,
2013-01-10 12:00:00,36.0,28.0,29.47,North,4,4.0,-999.0,73,-99.99,,,-99.99,114.900002,,2013-01-10 19:00:00,
2013-01-10 12:53:00,36.0,28.0,29.47,North,4,4.0,-999.0,73,-99.99,,,-99.99,114.900002,,2013-01-10 19:53:00,
2013-01-10 13:00:00,35.0,29.0,29.48,North,351,10.0,-999.0,80,-99.99,,,-99.99,132.300003,,2013-01-10 20:00:00,
2013-01-10 13:53:00,35.0,29.0,29.48,North,351,10.0,-999.0,80,-99.99,,,-99.99,132.300003,,2013-01-10 20:53:00,
2013-01-10 14:00:00,35.0,30.0,29.50,North,5,12.0,-999.0,80,-99.99,,,-99.99,258.100006,,2013-01-10 21:00:00,
2013-01-10 14:53:00,35.0,30.0,29.50,North,5,12.0,-999.0,80,-99.99,,,-99.99,258.100006,,2013-01-10 21:53:00,
2013-01-10 15:00:00,32.0,29.0,29.52,NNW,348,14.0,-999.0,89,-99.99,,,-99.99,167.899994,,2013-01-10 22:00:00,
2013-01-10 16:00:00,28.0,27.0,29.53,NNW,344,17.0,-999.0,97,-99.99,,,-99.99,31.660000,,2013-01-10 23:00:00,
2013-01-10 16:53:00,28.0,27.0,29.53,NNW,344,17.0,-999.0,97,-99.99,,,-99.99,31.660000,,2013-01-10 23:53:00,
2013-01-10 17:00:00,23.0,23.0,29.53,NNW,339,19.0,-999.0,98,-99.99,,,-99.99,3.590000,,2013-01-11 00:00:00,
2013-01-10 18:00:00,20.0,20.0,29.54,NNW,338,18.0,-999.0,97,-99.99,,,-99.99,0.050000,,2013-01-11 01:00:00,
2013-01-10 18:53:00,20.0,20.0,29.54,NNW,338,18.0,-999.0,97,-99.99,,,-99.99,0.050000,,2013-01-11 01:53:00,
2013-01-10 19:00:00,18.0,18.0,29.56,NNW,335,16.0,-999.0,97,-99.99,,,-99.99,0.040000,,2013-01-11 02:00:00,
2013-01-10 19:54:00,18.0,18.0,29.56,NNW,335,16.0,-999.0,97,-99.99,,,-99.99,0.040000,,2013-01-11 02:54:00,
2013-01-10 20:00:00,17.0,16.0,29.57,NNW,332,15.0,-999.0,96,-99.99,,,-99.99,0.050000,,2013-01-11 03:00:00,
2013-01-10 20:53:00,17.0,16.0,29.57,NNW,332,15.0,-999.0,96,-99.99,,,-99.99,0.050000,,2013-01-11 03:53:00,
2013-01-10 21:00:00,17.0,16.0,29.59,NW,321,13.0,-999.0,96,-99.99,,,-99.99,0.050000,,2013-01-11 04:00:00,
2013-01-10 21:53:00,17.0,16.0,29.59,NW,321,13.0,-999.0,96,-99.99,,,-99.99,0.050000,,2013-01-11 04:53:00,
2013-01-10 22:00:00,17.0,16.0,29.59,NW,324,11.0,-999.0,96,-99.99,,,-99.99,0.050000,,2013-01-11 05:00:00,
2013-01-10 22:53:00,17.0,16.0,29.59,NW,324,11.0,-999.0,96,-99.99,,,-99.99,0.050000,,2013-01-11 05:53:00,
2013-01-10 23:00:00,16.0,15.0,29.60,NW,315,10.0,-999.0,95,-99.99,,,-99.99,0.040000,,2013-01-11 06:00:00,
2013-01-10 23:52:00,16.0,15.0,29.60,NW,315,10.0,-999.0,95,-99.99,,,-99.99,0.040000,,2013-01-11 06:52:00,